Back to catalog

STARLINK-5741

AliveCommunicationsVLEO
NORAD 55582·PAYLOAD·🇺🇸 United States

Launched Feb 12, 2023 from Cape Canaveral Space Force Station

Loading…

Next Passes (next 24 hours)

TLE

FreshSource: CelesTrak SupGP

Epoch: Sep 14, 2026, 14:49 UTC

1 55582C 23020P   26257.61784722  .00001936  00000+0  70141-4 0  2573
2 55582  43.0040   7.2579 0001319 280.7863  77.8108 15.27571061    13

Track STARLINK-5741 in real time with AllMySat

Download on the App Store